User: anonymous   Login
Location: Caltech
(34.1382°N, 118.1253°W)
Time: 19:40:46
(UTC-08:00)
Language:

BREEZE M DEB (TANK) - Orbit

View from above orbital plane
View from above orbital plane
View from above satellite
View from above satellite

Ground track
Ground track

The orbit data is extracted from the following two-line orbital elements,

1 33437U 08057B   16042.00014357  .00002952  00000-0  66698-3 0  9999
2 33437  49.5631 306.8917 5004362  77.9709 331.9381  5.58930345146307
Epoch (UTC): 11 February 2016 00:00:12
Eccentricity: 0.5004362
inclination: 49.5631°
perigee height: 322 km
apogee height: 13746 km
right ascension of ascending node: 306.8917°
argument of perigee: 77.9709°
revolutions per day: 5.58930345
mean anomaly at epoch: 331.9381°
orbit number at epoch: 14630

The dashed part of the orbit path shows where the satellite is in the earth's shadow,  

DLR